Regional Weather Roundup
Issued by NWS

Home | Current Version | Previous Version | Text Only | Print | Product List | Glossary On
Versions: 1 2 3 4 5 6 7 8 9 10 11 12 13 14 15 16 17 18 19 20 21 22 23 24 25 26 27 28 29 30 31 32 33 34 35 36 37 38 39 40 41 42 43 44 45 46 47 48 49 50
000
ASUS43 KMKX 261211
RWRWI

WISCONSIN REGIONAL WEATHER ROUNDUP
NATIONAL WEATHER SERVICE MILWAUKEE/SULLIVAN WI
700 AM CDT FRI MAY 26 2017

NOTE: "FAIR" INDICATES FEW OR NO CLOUDS BELOW 12,000 FEET WITH NO
SIGNIFICANT WEATHER AND/OR OBSTRUCTIONS TO VISIBILITY.

WIZ001-002-006>008-014>016-023>028-261300-
NORTHWEST WISCONSIN

CITY           SKY/WX    TMP DP  RH WIND       PRES   REMARKS
SUPERIOR ARPT  NOT AVBL
ASHLAND        CLOUDY    51  49  92 CALM      29.77S
6HR MIN TEMP:  47; 6HR MAX TEMP:  51; 6HR PCP:  0.02;

HAYWARD        CLOUDY    60  50  69 SE7       29.75S
6HR MIN TEMP:  55; 6HR MAX TEMP:  60; 6HR PCP: TRACE;

SIREN          CLOUDY    60  52  76 CALM      29.73R
6HR MIN TEMP:  57; 6HR MAX TEMP:  60;

CUMBERLAND     CLOUDY    55  52  88 SE6       29.75R
RICE LAKE      CLOUDY    59  53  81 SE9       29.76S
6HR MIN TEMP:  57; 6HR MAX TEMP:  59;

CHETEK         CLOUDY    58  55  89 SE5       29.76S
6HR MIN TEMP:  56; 6HR MAX TEMP:  58;

LADYSMITH      CLOUDY    58  54  84 SE5       29.80R
6HR MIN TEMP:  57; 6HR MAX TEMP:  60;

EAU CLAIRE     CLOUDY    60  54  80 SE5       29.76R
6HR MIN TEMP:  58; 6HR MAX TEMP:  60; 6HR PCP:  0.01;

MENOMONIE      PTSUNNY   59  55  88 E5        29.75S
6HR MIN TEMP:  58; 6HR MAX TEMP:  61;

NEW RICHMOND   CLOUDY    60  51  74 SE9       29.72S
6HR MIN TEMP:  58; 6HR MAX TEMP:  60;

OSCEOLA        CLOUDY    61  53  75 SE6       29.75R
6HR MIN TEMP:  59; 6HR MAX TEMP:  62;

$$

WIZ003>005-009-010-017-018-261300-
NORTH CENTRAL WISCONSIN

CITY           SKY/WX    TMP DP  RH WIND       PRES   REMARKS
MANITOWISH WTR CLOUDY    54  54 100 CALM      29.81F
6HR MIN TEMP:  53; 6HR MAX TEMP:  58; 6HR PCP:  0.01;

ARBOR VITAE    CLOUDY    57  55  92 SE6       29.81F
6HR MIN TEMP:  57; 6HR MAX TEMP:  59;

WOODRUFF       CLOUDY    57  55  92 SE6       29.81F
6HR MIN TEMP:  57; 6HR MAX TEMP:  59;

RHINELANDER    CLOUDY    56  53  90 E5        29.83S
6HR MIN TEMP:  55; 6HR MAX TEMP:  58; 6HR PCP:  0.01;

EAGLE RIVER    CLOUDY    53  51  94 CALM      29.83S
6HR MIN TEMP:  51; 6HR MAX TEMP:  54;

LAND O LAKES   CLOUDY    52  51  93 CALM      29.85R
6HR MIN TEMP:  45; 6HR MAX TEMP:  52;

PHILLIPS       CLOUDY    55  54  94 SE3       29.79S
6HR MIN TEMP:  54; 6HR MAX TEMP:  57;

TOMAHAWK       CLOUDY    54  52  92 CALM      29.83S
6HR MIN TEMP:  53; 6HR MAX TEMP:  57;

MEDFORD        CLOUDY    54  53  95 SE3       29.80S
6HR MIN TEMP:  53; 6HR MAX TEMP:  56;

MERRILL        CLOUDY    55  55  99 SE3       29.83S
6HR MIN TEMP:  54; 6HR MAX TEMP:  60; 6HR PCP:  0.01;

$$

WIZ029-030-035-036-043>047-261300-
CENTRAL WISCONSIN

CITY           SKY/WX    TMP DP  RH WIND       PRES   REMARKS
WAUSAU         CLOUDY    55  54  96 E8        29.80F
6HR MIN TEMP:  54; 6HR MAX TEMP:  59; 6HR PCP: TRACE;

MOSINEE        CLOUDY    54  54 100 E6        29.83S
MARSHFIELD     CLOUDY    57  54  89 E6        29.80R FOG
6HR MIN TEMP:  55; 6HR MAX TEMP:  57; 6HR PCP:  0.01;

STEVENS POINT  CLOUDY    55  55 100 CALM      29.83R
6HR MIN TEMP:  53; 6HR MAX TEMP:  55;

WAUPACA        PTSUNNY   57  56  96 E3        29.84S FOG
6HR MIN TEMP:  57; 6HR MAX TEMP:  59;

WAUTOMA        CLOUDY    55  55 100 NE5       29.83R FOG
6HR MIN TEMP:  52; 6HR MAX TEMP:  55;

WISC RAPIDS    CLOUDY    56  55  97 E3        29.83R
6HR MIN TEMP:  52; 6HR MAX TEMP:  57; 6HR PCP:  0.07;

CAMP DOUGLAS   MOSUNNY   55  55 100 SE3       29.80S FOG
                                      6HR PCP:  0.06;

$$

WIZ011>013-019>022-031-037>040-048>050-261300-
NORTHEAST WISCONSIN

CITY           SKY/WX    TMP DP  RH WIND       PRES   REMARKS
ANTIGO         CLOUDY    52  52  99 S5        29.84F
6HR MIN TEMP:  51; 6HR MAX TEMP:  52;

SHAWANO        CLOUDY    55  53  94 CALM      29.85S
6HR MIN TEMP:  51; 6HR MAX TEMP:  55;

OCONTO         PTSUNNY   53  52  97 CALM      29.84S
6HR MIN TEMP:  42; 6HR MAX TEMP:  53;

STURGEON BAY   SUNNY     53  52  96 W3        29.85F
6HR MIN TEMP:  47; 6HR MAX TEMP:  53;

GREEN BAY      MOSUNNY   53  53 100 CALM      29.84S
6HR MIN TEMP:  49; 6HR MAX TEMP:  53;

MANITOWOC      CLOUDY    53  51  93 CALM      29.86R FOG
6HR MIN TEMP:  47; 6HR MAX TEMP:  53;

APPLETON       LGT RAIN  55  54  94 SW7       29.93R
CLINTONVILLE   LGT RAIN  54  52  94 CALM      29.84S
OSHKOSH        CLOUDY    57  53  86 SE3       29.83S
6HR MIN TEMP:  53; 6HR MAX TEMP:  57; 6HR PCP: TRACE;

$$

WIZ032>034-041-042-053>061-261300-
SOUTHWEST WISCONSIN

CITY           SKY/WX    TMP DP  RH WIND       PRES   REMARKS
LA CROSSE      SUNNY     59  56  89 E7        29.76S
6HR MIN TEMP:  57; 6HR MAX TEMP:  61; 6HR PCP:  0.03;

SPARTA         SUNNY     53  53 100 CALM      29.79S FOG
6HR MIN TEMP:  51; 6HR MAX TEMP:  55; 6HR PCP:  0.07;

VIROQUA        SUNNY     55  54  95 N8        29.78S
6HR MIN TEMP:  54; 6HR MAX TEMP:  59;

BOSCOBEL       CLOUDY    56  55  97 CALM      29.78F FOG
6HR MIN TEMP:  51; 6HR MAX TEMP:  58;

PRAIRIE DU CHI CLOUDY    56  53  90 CALM      29.77S
6HR MIN TEMP:  54; 6HR MAX TEMP:  58;

PLATTEVILLE    MOSUNNY   58  57  97 E8        29.79S
6HR MIN TEMP:  55; 6HR MAX TEMP:  60;

$$

WIZ056-057-062-063-064-067-068-261300-
SOUTH CENTRAL WISCONSIN

CITY           SKY/WX    TMP DP  RH WIND       PRES   REMARKS
REEDSBURG      MOSUNNY   55  55 100 CALM      29.81R
6HR MIN TEMP:  54; 6HR MAX TEMP:  58; 6HR PCP:  0.03;

BARABOO/DELLS  MOSUNNY   55  54  95 CALM      29.81S
6HR MIN TEMP:  52; 6HR MAX TEMP:  57; 6HR PCP:  0.03;

LONE ROCK      SUNNY     57  54  89 E7        29.80S FOG
6HR MIN TEMP:  51; 6HR MAX TEMP:  59; 6HR PCP: TRACE;

MINERAL POINT  SUNNY     59  55  88 E7        29.80S
MADISON        PTSUNNY   55  53  93 S3        29.82R
6HR MIN TEMP:  53; 6HR MAX TEMP:  59; 6HR PCP: TRACE;

MIDDLETON      SUNNY     55  55 100 CALM      29.83R
6HR MIN TEMP:  51; 6HR MAX TEMP:  57;

WATERTOWN      PTSUNNY   55  55 100 E3        29.84R
6HR MIN TEMP:  50; 6HR MAX TEMP:  55;

MONROE         SUNNY     55  54  94 E3        29.81S FOG
JANESVILLE     MOSUNNY   55  55 100 CALM      29.83R
$$

WIZ051-052-058>065-066-070>072-261300-
SOUTHEAST WISCONSIN

CITY           SKY/WX    TMP DP  RH WIND       PRES   REMARKS
MILWAUKEE      PTSUNNY   56  54  93 E3        29.86R FOG
6HR MIN TEMP:  51; 6HR MAX TEMP:  56; 6HR PCP:  0.02;

WAUKESHA       MOSUNNY   54  54 100 CALM      29.86S FOG
MILWAUKEE/TIMM   N/A     54  50  87 CALM      29.86S
RACINE         MOSUNNY   55  52  89 CALM      29.87R
6HR MIN TEMP:  49; 6HR MAX TEMP:  55; 6HR PCP: TRACE;

KENOSHA        CLOUDY    55  53  93 NE5       29.85S
6HR MIN TEMP:  48; 6HR MAX TEMP:  55;

FOND DU LAC    CLOUDY    57  52  83 SE3       29.84S
6HR MIN TEMP:  51; 6HR MAX TEMP:  57; 6HR PCP:  0.01;

SHEBOYGAN      CLOUDY    51  51 100 S3        29.86R FOG
6HR MIN TEMP:  46; 6HR MAX TEMP:  52;

WEST BEND      CLOUDY    52  52 100 E3        29.85S
JUNEAU         CLOUDY    55  54  97 E3        29.85S FOG
6HR MIN TEMP:  53; 6HR MAX TEMP:  55; 6HR PCP:  0.02;

$$

LSZ147-162-261300-
LAKE SUPERIOR

STATION/POSITION TIME  TEMP    WIND        PRES    WAVE
                       AIR SEA DIR/SP/G            HT/PER
                 (UTC) (F)     (DEG/KT/KT) (MB)    (FT/S)
W MID LAKE BUOY  1150   41 37  120/  4/  6 1008.9R   1
DEVILS ISLAND    1200   45     150/  4/  4 1008.4F
PORT WING        1140   44      60/  6/  8 1007.5F
SAXON HARBOR     1140   54     180/  2/  5 1007.5F
$$

LMZ867-665-643>646-261300-
LAKE MICHIGAN

STATION/POSITION TIME  TEMP    WIND        PRES    WAVE
                       AIR SEA DIR/SP/G            HT/PER
                 (UTC) (F)     (DEG/KT/KT) (MB)    (FT/S)
CHAMBERS ISLAND  1140   53      30/  2/  2 1010.5R
N MID L



USA.gov is the U.S. government's official web portal to all federal, state and local government web resources and services.